Location: Praha
(50.0830°N, 14.4670°E)
Time: 16:26:34
(UTC+02:00)

ISS - Pass Details

Date: 07 October 2019
Orbit: 411 x 421 km, 51.6° (Epoch: 18 October)

Event Time Altitude Azimuth Distance (km) Brightness Sun altitude
Rises 20:32:19 0° 280° (W) 2,346 1.6 -20.5°
Reaches altitude 10° 20:35:31 10° 246° (WSW) 1,478 -0.3 -21.0°
Maximum altitude 20:36:46 12° 224° (SW) 1,376 -0.8 -21.2°
Enters shadow 20:37:58 10° 202° (SSW) 1,466 -1.0 -21.4°
